Starlink 31492

operational
NORAD ID: 59212 Int'l Des: 2024-046 Owner: SPXS Country: US Constellation: starlink
LEOCIRCULAR

Starlink 31492について

説明を読み込み中...

リアルタイム位置

3D地球を読み込み中...

次回通過

高度履歴

Altitude vs Time

uPlot chart will show altitude changes over time

軌道要素

1 59212U 24046M 25350.79450229 .00003865 00000-0 14258-3 0 9993
2 59212 53.1590 180.6776 0001336 78.7254 281.3896 15.30190067100342
Epoch: Dec 16, 2025 • Age: 32 hours

現在のステータス

高度 479.8 km
速度 7.63 km/s
衛星直下点 48.29°N, 167.26°E
打ち上げ日 Mar 11, 2024
運用期間 1.7 years
タイプ internet

技術仕様

分類 Payload
質量 730.00 kg
乾燥質量 700.00 kg
総質量 730.00 kg
長さ 0.30 m
直径 4.10 m
スパン 29.00 m
形状 Box + pan
製造者 SPXS
バスタイプ Starlink V2M
フェーズステータス In Orbit
所有者/国 SPXS/US

大規模コンステレーション

Loading constellations...